{"data":{"norad_id":41836,"intl_designator":"2016-064A","name":"HIMAWARI-9","alt_names":[],"object_type":"PAYLOAD","status":"ACTIVE","operator":null,"country":"JPN","launch_date":"2016-11-02","launch_site_code":"TANSC","launch_vehicle":null,"mission":null,"orbit_class":"UNKNOWN","rcs_meters":38.791,"size_class":null,"mass_kg":null,"dimensions":null,"purposes":["comms","earth_obs"],"wikipedia_slug":null,"has_3d_model":false,"image_url":null,"decayed_at":null,"tle_current":{"epoch":"2026-05-25T04:24:43.418304Z","epoch_age_seconds":66075,"freshness":"FRESH","line1":"1 41836U 16064A   26145.18383586 -.00000277  00000+0  00000+0 0  9994","line2":"2 41836   0.0314 142.5560 0000955 326.3214 340.8456  1.00272937 34979","mean_motion":1.00272937,"eccentricity":9.55e-5,"inclination_deg":0.0314,"raan_deg":142.556,"arg_perigee_deg":326.3214,"mean_anomaly_deg":340.8456,"bstar":0,"rev_number":3497,"period_min":1436.0804052244,"perigee_km":35782.245315803,"apogee_km":35790.298717925,"semimajor_km":42164.409016864,"source":"CELESTRAK","updated_at":"2026-05-25T13:38:14.008415Z"}}}